sat.trackr.live / text

‹ back to catalog

STARLINK-5134

NORAD 53976 · 2022-125N

PAYLOAD ACTIVE UNKNOWN

§ Identity

Operator
Country
US
Launch date
2022-10-05
Launch site
AFWTR
Launch vehicle
Mass (kg)
RCS (m²)

Purposes: comms

External: N2YO · Heavens-Above · Gunter

§ Orbital elements

Epoch: 2026-09-20T22:27:18.373248Z

Period
93.82 min
Inclination
53.1609°
Eccentricity
0.0001187
Mean motion
15.34852351 rev/d
Perigee alt
460.5 km
Apogee alt
462.2 km
Semi-major
6,839.5 km
B*
1.7317e-3
RAAN
35.3972°
Arg perigee
122.6343°
Mean anomaly
237.4775°
Rev number
21,924

§ Raw data

STARLINK-51341 53976U 22125N   26263.93562932  .00059448  00000+0  17317-2 0  99902 53976  53.1609  35.3972 0001187 122.6343 237.4775 15.34852351219243

JSON: /api/v1/satellites/53976 · /tle

For live sub-satellite position, see the globe view (requires WebGL).

§ Visibility from observer

Set your observer location to see the next 7 days of passes ≥ 10°. The values pass through the URL so the page stays shareable.

No JS? Fill the form by hand. The geolocation button needs JavaScript.